STARLINK-35689

Last updated on Tue Dec 16 2025 00:02:05 GMT+0000 (Coordinated Universal Time)

1 66494U 25263K 25349.33335648 .00054090 00000+0 12940-2 0 9990 2 66494 43.0002 110.1657 0001177 258.4474 52.2381 15.40676891 6050
UTC large
Height (km)
Speed (km/s)
/
Latitude / Longitude
Inclination (degrees)
Orbital Period (minutes)
Azimuth
Elevation
Range (km)
Doppler Factor

Next 0 passes for location: London (51.5072 / 0.1276)

Sorry there are no passes over London.